Simultaneous Nadir Overpasses (SNOs) Predictions

Prediction of SNOs between GOES-16 and NPP Satellite Orbit:

Table of predicted SNOs for the next 14.0 days since TLE Epoch: 4/24/2021
Index Date Time (GOES-16) GOES-16 Lat,Lon NPP Lat,Lon Distance(km) Time Diff (sec)
1 04/24/2021 06:16:27 -0.03, -75.18 -0.42, -73.35 208.39 80
2 04/25/2021 18:38:23 0.02, -75.18 -0.73, -78.66 395.81 80
3 04/26/2021 18:22:18 0.03, -75.18 0.26, -74.12 121.37 80
4 04/28/2021 06:44:04 -0.02, -75.20 0.94, -79.38 476.80 80
5 04/29/2021 06:22:40 -0.03, -75.20 -0.11, -74.85 40.27 80
6 05/01/2021 18:25:51 0.02, -75.21 -0.04, -75.62 46.36 80
7 05/02/2021 18:09:45 0.02, -75.22 0.95, -71.09 471.50 80
8 05/04/2021 06:31:31 -0.01, -75.25 0.25, -76.34 125.39 80
9 05/05/2021 06:10:07 -0.01, -75.26 -0.81, -71.82 392.74 80
10 05/06/2021 18:32:02 0.01, -75.27 -0.40, -77.12 209.64 80
11 05/07/2021 18:15:57 0.01, -75.29 0.60, -72.58 309.23 80
